Weather Roundup
Issued by NWS

Home | Current Version | Previous Version | Text Only | Print | Product List | Glossary On
Versions: 1 2 3 4 5 6 7 8 9 10 11 12 13 14 15 16 17 18 19 20 21 22 23 24 25 26 27 28 29 30 31 32 33 34 35 36 37 38 39 40 41 42 43 44 45 46 47 48 49 50
000
NZUS93 KARX 170210
HRRWXR

CURRENT HOURLY OBSERVATIONS ACROSS
MUCH OF THE UPPER MISSISSIPPI VALLEY
NATIONAL WEATHER SERVICE LA CROSSE WI
900 PM CDT TUE SEP 16 2014


...SOUTHEAST MINNESOTA...


CITY           SKY/WX    TMP DP  RH WIND       PRES   REMARKS
ROCHESTER      CLEAR     52  45  77 S5        30.06S
ROCHESTER/MAYO FAIR      59  41  51 S3        30.05S
WINONA         CLEAR     54  52  94 CALM      30.06S
AUSTIN         CLEAR     48  45  87 CALM      30.05S
ALBERT LEA     PTCLDY    54  48  82 S3        30.04S
DODGE CENTER   CLEAR     48  45  87 S6        30.05S
PRESTON        CLEAR     53  49  87 S5        30.07R
OWATONNA       MOCLDY    54  46  76 SE7       30.03F
FARIBAULT      MOCLDY    55  46  71 CALM      30.03F
$$

...ELSEWHERE IN MINNESOTA...


CITY           SKY/WX    TMP DP  RH WIND       PRES   REMARKS
MINNEAPOLIS    PTCLDY    59  46  62 SE5       30.02S
INTNL FALLS    CLOUDY    50  49  96 CALM      29.93F
DULUTH         PTCLDY    55  42  61 SW8       29.99S
RED WING       CLEAR     50  46  87 CALM      30.03S
REDWOOD FALLS  CLOUDY    62  51  67 S5        30.00R
MANKATO        MOCLDY    57  45  62 SE6       30.02S
WORTHINGTON    CLOUDY    59  48  67 S9        30.02R
FAIRMONT       MOCLDY    54  43  66 S8        30.02S
$$

...SOUTHWEST WISCONSIN...


CITY           SKY/WX    TMP DP  RH WIND       PRES   REMARKS
LA CROSSE      CLEAR     54  48  80 SE6       30.06R
PRAIRIE DU CHI CLEAR     51  47  87 E3        30.07S
BOSCOBEL       CLEAR     49  46  90 CALM      30.08S
LONE ROCK      CLEAR     52  46  80 SE3       30.09S
PLATTEVILLE    CLEAR     53  44  71 CALM      30.09S
FORT MC COY    CLEAR     48  46  93 CALM      30.08S
VIROQUA        FAIR      53  44  71 S3        30.07S
WIS DELLS      CLEAR     49  44  83 S3        30.08F
$$

...ELSEWHERE IN WISCONSIN...


CITY           SKY/WX    TMP DP  RH WIND       PRES   REMARKS
MILWAUKEE      CLEAR     53  44  71 SW6       30.10S
MADISON        CLEAR     49  45  86 CALM      30.09S
GREEN BAY      CLEAR     52  46  80 S5        30.05S
EAU CLAIRE     CLEAR     50  44  80 CALM      30.04S
BLACK RVR FLS  FAIR      44  44 100 CALM      30.06S
MEDFORD        CLEAR     48  44  84 SW3       30.05S
WAUSAU         CLEAR     54  45  71 SW5       30.04F
WIS RAPIDS     CLEAR     46  44  93 CALM      30.08S
MARSHFIELD     CLEAR     50  45  83 SW3       30.06S
RICE LAKE      CLEAR     48  46  90 CALM      30.05S
$$

...NORTHEAST IOWA...


CITY           SKY/WX    TMP DP  RH WIND       PRES   REMARKS
WATERLOO       CLEAR     53  46  77 CALM      30.06S
DUBUQUE        CLEAR     51  45  79 CALM      30.08F
DECORAH        CLEAR     52  45  76 CALM      30.06S
MASON CITY     CLEAR     50  47  89 S5        30.06S
CHARLES CITY   CLEAR     52  46  82 S5        30.07S
OELWEIN        CLEAR     52  46  82 SE5       30.08S
$$

...ELSEWHERE IN IOWA...


CITY           SKY/WX    TMP DP  RH WIND       PRES   REMARKS
DES MOINES     CLEAR     60  49  66 SE6       30.06R
IOWA CITY      CLEAR     53  49  86 CALM      30.09R
FORT DODGE     CLEAR     55  46  71 S5        30.05S
MARSHALLTOWN   CLEAR     54  45  71 S3        30.06S
CEDAR RAPIDS   CLEAR     50  46  86 E5        30.07S
$$

...NORTHERN ILLINOIS...


CITY           SKY/WX    TMP DP  RH WIND       PRES   REMARKS
CHICAGO-OHARE  CLEAR     58  48  69 CALM      30.10S
DUPAGE         CLEAR     52  45  77 CALM      30.09S
CHICAGO-MIDWAY CLEAR     61  51  70 E7        30.10R
MOLINE         CLEAR     51  47  86 CALM      30.09S
ROCKFORD       CLEAR     53  46  77 CALM      30.12S
STERLING       CLEAR     48  43  81 CALM      30.09F
PEORIA         CLEAR     54  49  83 CALM      30.10S
$$

NOTE: "FAIR" INDICATES FEW OR NO CLOUDS BELOW 12,000 FEET WITH NO
SIGNIFICANT WEATHER AND/OR OBSTRUCTIONS TO VISIBILITY. WIND
SPEEDS ARE IN MILES-PER-HOUR.



USA.gov is the U.S. government's official web portal to all federal, state and local government web resources and services.